Ardmore, OK

7:09 AM CDT on July 26, 2017 (GMT -0500)
Ardmore Municipal

Weather History for KADM - June, 2012

Change the Weather History Date:

Saturday, June 2, 2012

  Actual Average Record
Temperature  
Mean Temperature 74 °F -  
Max Temperature 91 °F 83 °F 102 °F (1998)
Min Temperature 57 °F 64 °F 57 °F (2012)
Cooling Degree Days 9    
Growing Degree Days 24 (Base 50)    
Moisture  
Dew Point 56 °F    
Average Humidity 76    
Maximum Humidity 88    
Minimum Humidity 46    
Precipitation  
Precipitation 0.00 in - - ()
Sea Level Pressure  
Sea Level Pressure 29.90 in    
Wind  
Wind Speed 4 mph (East)    
Max Wind Speed 9 mph    
Max Gust Speed -    
Visibility 10 miles    
Events Thunderstorm    
Averages and records for this station are not official NWS values.
T = Trace of Precipitation, MM = Missing Value Source: NWS Daily Summary

Daily Weather History Graph

Daily Weather History Graph

Search for Another Location

Airport or City:

Trip Planner

Search our weather history database for the weather conditions in past years. The results will help you decide how hot, cold, wet, or windy it might be!

Date:

Astronomy

Jun. 02, 2012 Rise Set
Actual Time 6:16 AM CDT 8:35 PM CDT
Civil Twilight 5:47 AM CDT 9:04 PM CDT
Nautical Twilight 5:12 AM CDT 9:40 PM CDT
Astronomical Twilight 4:33 AM CDT 10:19 PM CDT
Moon 6:54 PM CDT (6/2) 4:32 AM CDT (6/2)
Length of Visible Light 15h 17m
Length of Day
14h 19m
Waxing Gibbous, 95% of the Moon is Illuminated
Jun 2
Waxing Gibbous
Jun 4
Full
Jun 11
Last Quarter
Jun 19
New
Jun 26
First Quarter

Hourly Weather History & Observations

Time (CDT) Temp. Heat Index Dew Point Humidity Pressure Visibility Wind Dir Wind Speed Gust Speed Precip Events Conditions
12:15 AM 59.0 °F - 53.6 °F 82% 29.90 in 10.0 mi East 4.6 mph - N/A   Clear
12:35 AM 59.0 °F - 53.6 °F 82% 29.90 in 10.0 mi ESE 4.6 mph - N/A   Clear
12:55 AM 59.0 °F - 53.6 °F 82% 29.89 in 10.0 mi SE 5.8 mph - N/A   Clear
1:15 AM 59.0 °F - 53.6 °F 82% 29.90 in 10.0 mi Calm Calm - N/A   Clear
1:35 AM 59.0 °F - 51.8 °F 77% 29.89 in 10.0 mi East 4.6 mph - N/A   Clear
1:55 AM 59.0 °F - 51.8 °F 77% 29.89 in 10.0 mi Calm Calm - N/A   Clear
2:15 AM 59.0 °F - 53.6 °F 82% 29.89 in 10.0 mi Calm Calm - N/A   Clear
2:35 AM 59.0 °F - 51.8 °F 77% 29.89 in 10.0 mi ESE 3.5 mph - N/A   Clear
2:55 AM 57.2 °F - 53.6 °F 88% 29.88 in 10.0 mi East 3.5 mph - N/A   Clear
3:15 AM 57.2 °F - 53.6 °F 88% 29.89 in 10.0 mi Calm Calm - N/A   Clear
3:35 AM 57.2 °F - 53.6 °F 88% 29.89 in 10.0 mi East 3.5 mph - N/A   Clear
3:55 AM 59.0 °F - 53.6 °F 82% 29.90 in 10.0 mi East 3.5 mph - N/A   Clear
4:15 AM 59.0 °F - 53.6 °F 82% 29.91 in 10.0 mi NE 4.6 mph - N/A   Clear
4:35 AM 59.0 °F - 53.6 °F 82% 29.92 in 10.0 mi NE 8.1 mph - N/A   Clear
4:55 AM 59.0 °F - 53.6 °F 82% 29.92 in 10.0 mi NE 6.9 mph - N/A   Clear
5:15 AM 59.0 °F - 53.6 °F 82% 29.92 in 10.0 mi East 4.6 mph - N/A   Clear
5:35 AM 59.0 °F - 53.6 °F 82% 29.92 in 10.0 mi SE 4.6 mph - N/A   Clear
5:55 AM 59.0 °F - 53.6 °F 82% 29.95 in 10.0 mi North 9.2 mph - N/A   Clear
6:35 AM 59.0 °F - 53.6 °F 82% 29.96 in 10.0 mi ENE 9.2 mph - N/A Thunderstorm Clear
6:55 AM 59.0 °F - 51.8 °F 77% 29.95 in 10.0 mi ENE 8.1 mph - N/A   Clear
7:55 AM 60.8 °F - 53.6 °F 77% 29.92 in 10.0 mi ESE 6.9 mph - N/A   Clear
8:55 AM 66.2 °F - 55.4 °F 68% 29.91 in 10.0 mi SSE 8.1 mph - N/A   Clear
11:55 AM 78.8 °F - 62.6 °F 57% 29.91 in 10.0 mi Calm Calm - N/A   Clear
1:55 PM 87.8 °F 90.4 °F 66.2 °F 49% 29.87 in 10.0 mi Calm Calm - N/A   Clear
2:55 PM 91.4 °F 95.4 °F 68.0 °F 46% 29.85 in 10.0 mi East 4.6 mph - N/A   Clear
11:35 PM 78.8 °F - 66.2 °F 65% 29.84 in 10.0 mi South 8.1 mph - N/A   Clear
11:55 PM 80.6 °F 82.3 °F 64.4 °F 58% 29.84 in 10.0 mi South 8.1 mph - N/A   Clear